Ashtabula, OH

12:35 AM EDT on June 25, 2017 (GMT -0400)
Ashtabula County

Weather History for KHZY - October, 2013

Change the Weather History Date:

Saturday, October 12, 2013

  Actual Average (KGKJ) Record (KGKJ)
Temperature  
Mean Temperature 60 °F -  
Max Temperature 75 °F 60 °F 83 °F (1949)
Min Temperature 45 °F 40 °F 25 °F (1964)
Degree Days  
Heating Degree Days 5    
Growing Degree Days 10 (Base 50)    
Moisture  
Dew Point 51 °F    
Average Humidity 73    
Maximum Humidity 90    
Minimum Humidity 50    
Precipitation  
Precipitation 0.00 in - - ()
Sea Level Pressure  
Sea Level Pressure 30.13 in    
Wind  
Wind Speed 3 mph (SE)    
Max Wind Speed 7 mph    
Max Gust Speed -    
Visibility 10 miles    
Events      
Averages and records for this station are not official NWS values.
T = Trace of Precipitation, MM = Missing Value Source: NWS Daily Summary

Daily Weather History Graph

Daily Weather History Graph

Search for Another Location

Airport or City:

Trip Planner

Search our weather history database for the weather conditions in past years. The results will help you decide how hot, cold, wet, or windy it might be!

Date:

Astronomy

Oct. 12, 2013 Rise Set
Actual Time 7:31 AM EDT 6:45 PM EDT
Civil Twilight 7:03 AM EDT 7:13 PM EDT
Nautical Twilight 6:31 AM EDT 7:45 PM EDT
Astronomical Twilight 5:59 AM EDT 8:18 PM EDT
Moon 2:59 PM EDT (10/12) 12:28 AM EDT (10/12)
Length of Visible Light 12h 09m
Length of Day
11h 13m
First Quarter, 58% of the Moon is Illuminated
Oct 12
First Quarter
Oct 18
Full
Oct 26
Last Quarter
Nov 3
New
Nov 10
First Quarter

Hourly Weather History & Observations

Time (EDT) Temp. Dew Point Humidity Pressure Visibility Wind Dir Wind Speed Gust Speed Precip Events Conditions
12:53 AM 46.0 °F 43.0 °F 89% 30.11 in 10.0 mi Calm Calm - N/A   Clear
1:53 AM 46.0 °F 42.1 °F 86% 30.11 in 10.0 mi Calm Calm - N/A   Clear
2:53 AM 45.0 °F 41.0 °F 86% 30.11 in 10.0 mi Calm Calm - N/A   Clear
3:53 AM 46.9 °F 43.0 °F 86% 30.11 in 10.0 mi East 3.5 mph - N/A   Clear
4:53 AM 46.9 °F 44.1 °F 90% 30.12 in 10.0 mi ESE 3.5 mph - N/A   Clear
5:53 AM 50.0 °F 44.1 °F 80% 30.12 in 10.0 mi ESE 3.5 mph - N/A   Mostly Cloudy
6:53 AM 48.0 °F 44.1 °F 86% 30.14 in 10.0 mi Calm Calm - N/A   Clear
7:53 AM 48.9 °F 45.0 °F 86% 30.16 in 10.0 mi Calm Calm - N/A   Clear
8:53 AM 55.9 °F 46.0 °F 69% 30.16 in 10.0 mi SSE 4.6 mph - N/A   Clear
9:53 AM 61.0 °F 50.0 °F 67% 30.16 in 10.0 mi SSE 5.8 mph - N/A   Clear
10:53 AM 64.9 °F 52.0 °F 63% 30.15 in 10.0 mi SE 5.8 mph - N/A   Partly Cloudy
11:53 AM 66.9 °F 54.0 °F 63% 30.14 in 10.0 mi ESE 6.9 mph - N/A   Partly Cloudy
12:53 PM 71.1 °F 55.0 °F 57% 30.13 in 10.0 mi ESE 4.6 mph - N/A   Clear
1:53 PM 72.0 °F 57.0 °F 59% 30.12 in 10.0 mi ESE 4.6 mph - N/A   Clear
2:53 PM 73.9 °F 55.9 °F 53% 30.10 in 10.0 mi Variable 4.6 mph - N/A   Clear
3:53 PM 75.0 °F 55.0 °F 50% 30.09 in 10.0 mi SE 6.9 mph - N/A   Clear
4:53 PM 75.0 °F 55.9 °F 51% 30.09 in 10.0 mi SE 5.8 mph - N/A   Scattered Clouds
5:53 PM 69.1 °F 57.0 °F 65% 30.10 in 10.0 mi Calm Calm - N/A   Partly Cloudy
6:53 PM 63.0 °F 55.9 °F 78% 30.12 in 10.0 mi Calm Calm - N/A   Clear
7:53 PM 61.0 °F 55.9 °F 83% 30.14 in 10.0 mi East 4.6 mph - N/A   Partly Cloudy
8:53 PM 64.0 °F 57.0 °F 78% 30.14 in 10.0 mi SW 3.5 mph - N/A   Clear
9:53 PM 64.0 °F 57.0 °F 78% 30.13 in 10.0 mi ESE 6.9 mph - N/A   Clear
10:53 PM 64.9 °F 57.0 °F 75% 30.13 in 10.0 mi SSE 4.6 mph - N/A   Clear
11:53 PM 64.0 °F 57.0 °F 78% 30.14 in 10.0 mi SE 4.6 mph - N/A   Overcast